Change the Weather History Date:

Sunday, October 27, 2013

  Actual Average Record
Temperature  
Mean Temperature 52 °F 46 °F  
Max Temperature 71 °F 58 °F 90 °F (1922)
Min Temperature 32 °F 35 °F 12 °F (1997)
Degree Days  
Heating Degree Days 13 19  
Month to date heating degree days 382 365  
Since 1 July heating degree days 427 507  
Cooling Degree Days 0 0  
Month to date cooling degree days 9 8  
Year to date cooling degree days 1005 914  
Moisture  
Dew Point 32 °F    
Average Humidity 49    
Maximum Humidity 70    
Minimum Humidity 28    
Precipitation  
Precipitation 0.00 in 0.05 in 0.81 in (1901)
Month to date precipitation 4.34 1.87  
Year to date precipitation 23.60 25.09  
Snow  
Snow 0.00 in 0.10 in - ()
Month to date snowfall 0.0 0.6  
Since 1 July snowfall 0.0 0.6  
Snow Depth 0.00 in    
Sea Level Pressure  
Sea Level Pressure 29.94 in    
Wind  
Wind Speed 7 mph (SSW)    
Max Wind Speed 20 mph    
Max Gust Speed 26 mph    
Visibility 10 miles    
Events      
T = Trace of Precipitation, MM = Missing Value Source: NWS Daily Summary

Daily Weather History Graph

Daily Weather History Graph

Search for Another Location

Airport or City:

Trip Planner

Search our weather history database for the weather conditions in past years. The results will help you decide how hot, cold, wet, or windy it might be!

Date:

Astronomy

Oct. 27, 2013 Rise Set
Actual Time 7:56 AM CDT 6:29 PM CDT
Civil Twilight 7:27 AM CDT 6:58 PM CDT
Nautical Twilight 6:55 AM CDT 7:31 PM CDT
Astronomical Twilight 6:22 AM CDT 8:03 PM CDT
Moon 12:48 AM CDT (10/27) 2:45 PM CDT (10/27)
Length of Visible Light 11h 30m
Length of Day
10h 33m
Last Quarter, 43% of the Moon is Illuminated
Oct 27
Last Quarter
Nov 3
New
Nov 9
First Quarter
Nov 17
Full
Nov 25
Last Quarter

Hourly Weather History & Observations

Time (CDT) Temp. Windchill Dew Point Humidity Pressure Visibility Wind Dir Wind Speed Gust Speed Precip Events Conditions
12:56 AM 33.1 °F 26.9 °F 25.0 °F 72% 30.12 in 10.0 mi South 6.9 mph - N/A   Clear
1:56 AM 33.1 °F 28.7 °F 25.0 °F 72% 30.10 in 10.0 mi SSW 4.6 mph - N/A   Clear
2:56 AM 36.0 °F 33.3 °F 24.1 °F 62% 30.07 in 10.0 mi SSW 3.5 mph - N/A   Clear
3:56 AM 36.0 °F 30.3 °F 25.0 °F 64% 30.04 in 10.0 mi South 6.9 mph - N/A   Clear
4:56 AM 36.0 °F 31.1 °F 25.0 °F 64% 30.01 in 10.0 mi SSW 5.8 mph - N/A   Clear
5:56 AM 35.1 °F 29.3 °F 26.1 °F 70% 29.99 in 10.0 mi SW 6.9 mph - N/A   Clear
6:56 AM 36.0 °F 30.3 °F 26.1 °F 67% 29.96 in 10.0 mi SSW 6.9 mph - N/A   Clear
7:56 AM 35.1 °F 29.3 °F 26.1 °F 70% 29.95 in 10.0 mi South 6.9 mph - N/A   Clear
8:56 AM 39.0 °F 35.7 °F 28.0 °F 65% 29.94 in 10.0 mi SSW 4.6 mph - N/A   Clear
9:56 AM 44.1 °F 39.0 °F 30.0 °F 58% 29.92 in 10.0 mi SSW 9.2 mph - N/A   Clear
10:56 AM 51.1 °F - 33.1 °F 50% 29.91 in 10.0 mi SSW 6.9 mph - N/A   Clear
11:56 AM 57.9 °F - 35.1 °F 42% 29.88 in 10.0 mi WSW 6.9 mph - N/A   Clear
12:56 PM 63.0 °F - 36.0 °F 37% 29.86 in 10.0 mi Variable 5.8 mph - N/A   Clear
1:56 PM 68.0 °F - 36.0 °F 31% 29.83 in 10.0 mi Calm Calm - N/A   Clear
2:56 PM 70.0 °F - 37.0 °F 30% 29.81 in 10.0 mi Calm Calm - N/A   Clear
3:56 PM 70.0 °F - 36.0 °F 29% 29.81 in 10.0 mi Calm Calm - N/A   Clear
4:56 PM 69.1 °F - 37.9 °F 32% 29.82 in 10.0 mi SSE 5.8 mph - N/A   Clear
5:56 PM 64.9 °F - 39.9 °F 40% 29.83 in 10.0 mi Calm Calm - N/A   Clear
6:56 PM 55.0 °F - 39.0 °F 55% 29.87 in 10.0 mi North 9.2 mph - N/A   Clear
7:56 PM 54.0 °F - 36.0 °F 51% 29.90 in 10.0 mi North 9.2 mph - N/A   Clear
8:56 PM 53.1 °F - 37.0 °F 55% 29.92 in 10.0 mi NNE 9.2 mph - N/A   Clear
9:56 PM 52.0 °F - 35.1 °F 53% 29.95 in 10.0 mi NE 16.1 mph 24.2 mph N/A   Clear
10:56 PM 48.0 °F - 34.0 °F 58% 29.99 in 10.0 mi NE 12.7 mph 18.4 mph N/A   Clear
11:56 PM 46.0 °F 41.4 °F 34.0 °F 63% 30.01 in 10.0 mi NNE 9.2 mph - N/A   Clear